Previsão horária em Abikanda

Hoje, 23 Janeiro, Sábado

Tempo Temperatura Precipitação Vento Pressão Humidade
00:00 -10°C° 0 mm 1 m/s 673 mmHg 84%
01:00 -10°C° 0 mm 1 m/s 673 mmHg 82%
02:00 -10°C° 0 mm 1 m/s 673 mmHg 81%
03:00 -10°C° 0 mm 1 m/s 673 mmHg 80%
04:00 -11°C° 0 mm 1 m/s 673 mmHg 79%
05:00 -11°C° 0 mm 1 m/s 673 mmHg 76%
06:00 -11°C° 0 mm 1 m/s 674 mmHg 74%
07:00 -11°C° 0 mm 1 m/s 674 mmHg 71%
08:00 -9°C° 0 mm 1 m/s 674 mmHg 70%
09:00 -7°C° 0 mm 1 m/s 675 mmHg 70%
10:00 -4°C° 0 mm 1 m/s 675 mmHg 69%
11:00 -4°C° 0 mm 1 m/s 675 mmHg 70%
12:00 -6°C° 0 mm 2 m/s 675 mmHg 71%
13:00 -5°C° 0 mm 2 m/s 674 mmHg 72%
14:00 -4°C° 0 mm 1 m/s 674 mmHg 74%
15:00 -6°C° 0 mm 1 m/s 673 mmHg 76%
16:00 -6°C° 0 mm 0 m/s 673 mmHg 78%
17:00 -6°C° 0 mm 1 m/s 673 mmHg 74%
18:00 -6°C° 0 mm 1 m/s 674 mmHg 69%
19:00 -6°C° 0 mm 1 m/s 674 mmHg 64%
20:00 -6°C° 0 mm 1 m/s 674 mmHg 62%
21:00 -7°C° 0 mm 1 m/s 673 mmHg 59%
22:00 -7°C° 0 mm 1 m/s 673 mmHg 57%
23:00 -7°C° 0 mm 1 m/s 673 mmHg 55%

Amanhã, 24 Janeiro, Domingo

Tempo Temperatura Precipitação Vento Pressão Humidade
00:00 -6°C° 0 mm 1 m/s 673 mmHg 53%
01:00 -6°C° 0 mm 1 m/s 673 mmHg 51%
02:00 -6°C° 0 mm 1 m/s 673 mmHg 50%
03:00 -6°C° 0 mm 1 m/s 672 mmHg 49%
04:00 -6°C° 0 mm 1 m/s 672 mmHg 49%
05:00 -4°C° 0 mm 1 m/s 672 mmHg 49%
06:00 -6°C° 0 mm 2 m/s 672 mmHg 49%
07:00 -6°C° 0 mm 2 m/s 672 mmHg 50%
08:00 -2°C° 0 mm 1 m/s 673 mmHg 55%
09:00 0°C° 0 mm 1 m/s 673 mmHg 60%
10:00 +2°C° 0 mm 1 m/s 673 mmHg 64%
11:00 +3°C° 0 mm 1 m/s 673 mmHg 70%
12:00 +3°C° 0 mm 1 m/s 672 mmHg 75%
13:00 +3°C° 0 mm 1 m/s 671 mmHg 80%
14:00 +2°C° 0 mm 1 m/s 671 mmHg 79%
15:00 +1°C° 0 mm 1 m/s 670 mmHg 79%
16:00 0°C° 0 mm 1 m/s 670 mmHg 78%
17:00 0°C° 0 mm 1 m/s 670 mmHg 73%
18:00 -1°C° 0 mm 1 m/s 670 mmHg 68%
19:00 -3°C° 0 mm 2 m/s 670 mmHg 63%
20:00 -3°C° 0 mm 2 m/s 670 mmHg 59%
21:00 -3°C° 0 mm 2 m/s 670 mmHg 56%
22:00 -1°C° 0 mm 1 m/s 670 mmHg 53%
23:00 -3°C° 0 mm 2 m/s 670 mmHg 52%

Depois de amanhã, 25 Janeiro, Segunda-feira

Tempo Temperatura Precipitação Vento Pressão Humidade
00:00 -3°C° 0 mm 2 m/s 670 mmHg 50%
01:00 -3°C° 0 mm 2 m/s 670 mmHg 49%
02:00 -1°C° 0 mm 1 m/s 669 mmHg 48%
03:00 -1°C° 0 mm 1 m/s 669 mmHg 47%
04:00 -1°C° 0 mm 1 m/s 669 mmHg 47%
05:00 -1°C° 0 mm 1 m/s 669 mmHg 46%
06:00 -1°C° 0 mm 1 m/s 669 mmHg 46%
07:00 -1°C° 0 mm 1 m/s 670 mmHg 46%
08:00 +1°C° 0 mm 1 m/s 670 mmHg 55%
09:00 +2°C° 0 mm 1 m/s 670 mmHg 65%
10:00 +3°C° 0 mm 0 m/s 671 mmHg 75%
11:00 +3°C° 0 mm 0 m/s 670 mmHg 77%
12:00 +3°C° 0 mm 0 m/s 670 mmHg 79%
13:00 +3°C° 0 mm 0 m/s 670 mmHg 81%
14:00 +2°C° 0 mm 0 m/s 670 mmHg 78%
15:00 +1°C° 0 mm 0 m/s 669 mmHg 74%
16:00 0°C° 0 mm 0 m/s 669 mmHg 70%
17:00 0°C° 0 mm 0 m/s 669 mmHg 67%
18:00 0°C° 0 mm 1 m/s 669 mmHg 64%
19:00 0°C° 0 mm 1 m/s 669 mmHg 61%
20:00 0°C° 0 mm 1 m/s 669 mmHg 59%
21:00 0°C° 0 mm 1 m/s 670 mmHg 57%
22:00 -1°C° 0 mm 1 m/s 670 mmHg 55%
23:00 -1°C° 0 mm 1 m/s 669 mmHg 53%

26 Janeiro, Terça-feira

Tempo Temperatura Precipitação Vento Pressão Humidade
00:00 -1°C° 0 mm 1 m/s 669 mmHg 52%
01:00 -1°C° 0 mm 1 m/s 669 mmHg 50%
02:00 -1°C° 0 mm 1 m/s 669 mmHg 49%
03:00 -3°C° 0 mm 2 m/s 669 mmHg 47%
04:00 -3°C° 0 mm 2 m/s 669 mmHg 46%
05:00 -3°C° 0 mm 2 m/s 669 mmHg 45%
06:00 -3°C° 0 mm 2 m/s 669 mmHg 44%
07:00 -3°C° 0 mm 2 m/s 669 mmHg 43%
08:00 +1°C° 0 mm 1 m/s 670 mmHg 53%
09:00 +3°C° 0 mm 1 m/s 670 mmHg 62%
10:00 +3°C° 0 mm 0 m/s 671 mmHg 71%
11:00 +3°C° 0 mm 0 m/s 670 mmHg 73%
12:00 +4°C° 0 mm 0 m/s 670 mmHg 75%
13:00 +4°C° 0 mm 0 m/s 669 mmHg 77%
14:00 +3°C° 0 mm 0 m/s 669 mmHg 73%
15:00 +2°C° 0 mm 0 m/s 669 mmHg 69%
16:00 +2°C° 0 mm 1 m/s 669 mmHg 65%
17:00 +2°C° 0 mm 1 m/s 669 mmHg 61%
18:00 -1°C° 0 mm 2 m/s 669 mmHg 57%
19:00 -1°C° 0 mm 2 m/s 669 mmHg 53%
20:00 -1°C° 0 mm 2 m/s 669 mmHg 49%
21:00 -1°C° 0 mm 2 m/s 669 mmHg 45%
22:00 -1°C° 0 mm 2 m/s 669 mmHg 41%
23:00 -1°C° 0 mm 2 m/s 668 mmHg 39%

27 Janeiro, Quarta-feira

Tempo Temperatura Precipitação Vento Pressão Humidade
00:00 -1°C° 0 mm 2 m/s 668 mmHg 37%
01:00 -2°C° 0 mm 2 m/s 668 mmHg 35%
02:00 -2°C° 0 mm 2 m/s 668 mmHg 35%
03:00 -2°C° 0 mm 2 m/s 668 mmHg 34%
04:00 -2°C° 0 mm 2 m/s 668 mmHg 34%
05:00 -2°C° 0 mm 2 m/s 668 mmHg 34%
06:00 -2°C° 0 mm 2 m/s 668 mmHg 34%
07:00 -2°C° 0 mm 2 m/s 668 mmHg 34%
08:00 +2°C° 0 mm 1 m/s 669 mmHg 43%
09:00 +4°C° 0 mm 1 m/s 669 mmHg 52%
10:00 +4°C° 0 mm 0 m/s 670 mmHg 62%
11:00 +5°C° 0 mm 0 m/s 670 mmHg 65%
12:00 +5°C° 0 mm 0 m/s 669 mmHg 68%
13:00 +5°C° 0 mm 0 m/s 669 mmHg 72%
14:00 +4°C° 0 mm 0 m/s 669 mmHg 66%
15:00 +3°C° 0 mm 0 m/s 668 mmHg 59%
16:00 +3°C° 0 mm 1 m/s 668 mmHg 53%
17:00 +3°C° 0 mm 1 m/s 668 mmHg 49%
18:00 +1°C° 0 mm 2 m/s 668 mmHg 46%
19:00 -1°C° 0 mm 2 m/s 668 mmHg 42%
20:00 -1°C° 0 mm 2 m/s 668 mmHg 39%
21:00 -1°C° 0 mm 2 m/s 669 mmHg 36%
22:00 -1°C° 0 mm 2 m/s 669 mmHg 33%
23:00 -1°C° 0 mm 2 m/s 668 mmHg 32%

28 Janeiro, Quinta-feira

Tempo Temperatura Precipitação Vento Pressão Humidade
00:00 -1°C° 0 mm 2 m/s 668 mmHg 31%
01:00 -1°C° 0 mm 2 m/s 668 mmHg 30%
02:00 -1°C° 0 mm 3 m/s 668 mmHg 29%
03:00 -1°C° 0 mm 3 m/s 668 mmHg 28%
04:00 -1°C° 0 mm 3 m/s 667 mmHg 27%
05:00 -1°C° 0 mm 3 m/s 667 mmHg 27%
06:00 -1°C° 0 mm 3 m/s 667 mmHg 27%
07:00 -1°C° 0 mm 3 m/s 668 mmHg 26%
08:00 +2°C° 0 mm 2 m/s 668 mmHg 34%
09:00 +4°C° 0 mm 2 m/s 668 mmHg 42%
10:00 +7°C° 0 mm 1 m/s 668 mmHg 50%
11:00 +7°C° 0 mm 1 m/s 668 mmHg 54%
12:00 +8°C° 0 mm 1 m/s 668 mmHg 58%
13:00 +8°C° 0 mm 1 m/s 667 mmHg 62%
14:00 +7°C° 0 mm 1 m/s 667 mmHg 55%
15:00 +5°C° 0 mm 2 m/s 666 mmHg 48%
16:00 +5°C° 0 mm 2 m/s 666 mmHg 41%
17:00 +4°C° 0 mm 2 m/s 666 mmHg 37%
18:00 +2°C° 0 mm 3 m/s 666 mmHg 33%
19:00 +1°C° 0 mm 3 m/s 666 mmHg 29%
20:00 +2°C° 0 mm 3 m/s 666 mmHg 28%
21:00 +2°C° 0 mm 3 m/s 666 mmHg 26%
22:00 +2°C° 0 mm 3 m/s 666 mmHg 25%
Mostrar mais